Location: Unspecified
(0.0000°N, 0.0000°E)
Time: 15:27:57
(UTC+00:00)

CZ-2D R/B - Pass Details

Date: 13 November 2025
Orbit: 529 x 607 km, 34.9° (Epoch: 10 December)

Event Time Altitude Azimuth Distance (km) Brightness Sun altitude
Exits shadow 04:29:12 39° 268° (W) 790 ? -17.8°
Maximum altitude 04:30:21 56° 323° (NW) 627 ? -17.5°
Drops below altitude 10° 04:34:19 10° 42° (NE) 1,758 ? -16.6°
Sets 04:36:35 0° 46° (NE) 2,649 ? -16.1°
